Don Miguel - Guadalaj, Mexico

9:14 AM CDT on September 25, 2016 (GMT -0500)
Don Miguel Hidalgo International

Weather History for MMGL - January, 2013

Change the Weather History Date:

Sunday, January 13, 2013

  Actual Average Record
Temperature  
Mean Temperature 62 °F -  
Max Temperature 78 °F 73 °F 82 °F (2000)
Min Temperature 46 °F 38 °F 32 °F (2008)
Degree Days  
Heating Degree Days 3    
Growing Degree Days 12 (Base 50)    
Moisture  
Dew Point 44 °F    
Average Humidity 60    
Maximum Humidity 93    
Minimum Humidity 21    
Precipitation  
Precipitation 0.00 in - - ()
Sea Level Pressure  
Sea Level Pressure 30.02 in    
Wind  
Wind Speed 3 mph ()    
Max Wind Speed 18 mph    
Max Gust Speed -    
Visibility 9.5 miles    
Events      
Averages and records for this station are not official NWS values.
T = Trace of Precipitation, MM = Missing Value Source: Averaged Metar Reports

Daily Weather History Graph

Daily Weather History Graph

Search for Another Location

Airport or City:

Trip Planner

Search our weather history database for the weather conditions in past years. The results will help you decide how hot, cold, wet, or windy it might be!

Date:

Astronomy

Jan. 13, 2013 Rise Set
Actual Time 7:31 AM CST 6:32 PM CST
Civil Twilight 7:08 AM CST 6:56 PM CST
Nautical Twilight 6:40 AM CST 7:23 PM CST
Astronomical Twilight 6:14 AM CST 7:50 PM CST
Moon 8:53 AM CST (1/13) 8:48 PM CST (1/13)
Length of Visible Light 11h 48m
Length of Day
11h 00m
Waxing Crescent, 5% of the Moon is Illuminated
Jan 13
Waxing Crescent
Jan 18
First Quarter
Jan 26
Full
Feb 3
Last Quarter
Feb 10
New

Hourly Weather History & Observations

Time (CST) Temp. Dew Point Humidity Pressure Visibility Wind Dir Wind Speed Gust Speed Precip Events Conditions
12:53 AM 53.6 °F 46.4 °F 77% 30.10 in 10.0 mi Calm Calm - N/A   Scattered Clouds
1:53 AM 51.8 °F 46.4 °F 82% 30.08 in 10.0 mi Calm Calm - N/A   Partly Cloudy
2:41 AM 50.0 °F 46.4 °F 87% 29.83 in 10.0 mi South 3.5 mph - N/A   Partly Cloudy
3:52 AM 48.2 °F 44.6 °F 87% 30.08 in 10.0 mi SE 2.3 mph - N/A   Scattered Clouds
4:53 AM 48.2 °F 44.6 °F 87% 30.08 in 10.0 mi Calm Calm - N/A   Scattered Clouds
5:52 AM 46.4 °F 44.6 °F 93% 29.89 in 10.0 mi Calm Calm - N/A   Scattered Clouds
6:51 AM 46.4 °F 44.6 °F 93% 30.12 in 12.0 mi Calm Calm - N/A   Scattered Clouds
7:50 AM 48.2 °F 44.6 °F 87% 30.14 in 8.0 mi Calm Calm - N/A   Scattered Clouds
8:41 AM 51.8 °F 48.2 °F 88% 29.98 in 6.0 mi Calm Calm - N/A   Scattered Clouds
9:45 AM 62.6 °F 50.0 °F 63% 30.17 in 6.0 mi Calm Calm - N/A   Scattered Clouds
10:48 AM 68.0 °F 48.2 °F 49% 30.15 in 7.0 mi ESE 5.8 mph - N/A   Mostly Cloudy
11:47 AM 69.8 °F 46.4 °F 43% 29.91 in 8.0 mi NNE 3.5 mph - N/A   Mostly Cloudy
12:48 PM 73.4 °F 42.8 °F 33% 30.09 in 10.0 mi NNE 3.5 mph - N/A   Mostly Cloudy
1:50 PM 75.2 °F 37.4 °F 25% 30.06 in 10.0 mi SSE 6.9 mph - N/A   Mostly Cloudy
2:50 PM 75.2 °F 39.2 °F 27% 29.79 in 10.0 mi South 11.5 mph - N/A   Mostly Cloudy
3:49 PM 78.8 °F 35.6 °F 21% 30.04 in 10.0 mi SSW 5.8 mph - N/A   Mostly Cloudy
4:46 PM 75.2 °F 37.4 °F 25% 30.05 in 10.0 mi South 18.4 mph - N/A   Mostly Cloudy
5:50 PM 73.4 °F 41.0 °F 31% 29.86 in 10.0 mi South 17.3 mph - N/A   Mostly Cloudy
6:47 PM 69.8 °F 44.6 °F 40% 30.08 in 10.0 mi South 6.9 mph - N/A   Scattered Clouds
7:45 PM 64.4 °F 44.6 °F 49% 30.09 in 10.0 mi SSW 4.6 mph - N/A   Partly Cloudy
8:46 PM 60.8 °F 46.4 °F 59% 29.93 in 10.0 mi Calm Calm - N/A   Clear
9:46 PM 59.0 °F 46.4 °F 63% 30.10 in 10.0 mi SSW 4.6 mph - N/A   Clear
10:48 PM 59.0 °F 46.4 °F 63% 30.11 in 10.0 mi Calm Calm - N/A   Scattered Clouds
11:48 PM 57.2 °F 46.4 °F 67% 29.87 in 10.0 mi Calm Calm - N/A   Scattered Clouds